Location: 22
(39.7117°N, 89.5929°W)
Time: 06:24:15
(UTC-05:00)

A-11 Canister half - Pass Details

Date: 30 January 2023
Orbit: 1526 x 1682 km, 47.3° (Epoch: 01 April)

Event Time Altitude Azimuth Distance (km) Brightness Sun altitude
Rises 04:06:07 0° 181° (S) 4,671 11.5 -35.1°
Reaches altitude 10° 04:10:26 10° 163° (SSE) 3,684 11.1 -34.3°
Maximum altitude 04:16:06 18° 125° (SE) 3,098 11.0 -33.2°
Drops below altitude 10° 04:21:46 10° 86° (E) 3,702 11.9 -32.1°
Sets 04:26:05 0° 69° (ENE) 4,704 12.6 -31.3°
